Dansville, NY

4:10 AM EDT on May 26, 2017 (GMT -0400)
Dansville Municipal

Weather History for KDSV - March, 2012

Change the Weather History Date:

Friday, March 9, 2012

  Actual Average Record
Temperature  
Mean Temperature 32 °F -  
Max Temperature 39 °F 41 °F 77 °F (2016)
Min Temperature 25 °F 19 °F -2 °F (1960)
Degree Days  
Heating Degree Days 32    
Moisture  
Dew Point 22 °F    
Average Humidity 67    
Maximum Humidity 89    
Minimum Humidity 43    
Precipitation  
Precipitation 0.00 in - - ()
Sea Level Pressure  
Sea Level Pressure 30.19 in    
Wind  
Wind Speed 10 mph (WNW)    
Max Wind Speed 26 mph    
Max Gust Speed 34 mph    
Visibility 7 miles    
Events Fog , Snow    
Averages and records for this station are not official NWS values.
T = Trace of Precipitation, MM = Missing Value Source: NWS Daily Summary

Daily Weather History Graph

Daily Weather History Graph

Search for Another Location

Airport or City:

Trip Planner

Search our weather history database for the weather conditions in past years. The results will help you decide how hot, cold, wet, or windy it might be!

Date:

Astronomy

Mar. 09, 2012 Rise Set
Actual Time 6:32 AM EST 6:10 PM EST
Civil Twilight 6:04 AM EST 6:38 PM EST
Nautical Twilight 5:31 AM EST 7:11 PM EST
Astronomical Twilight 4:58 AM EST 7:44 PM EST
Moon 8:12 PM EST (3/9) 6:46 AM EST (3/9)
Length of Visible Light 12h 34m
Length of Day
11h 38m
Full, 98% of the Moon is Illuminated
Mar 9
Full
Mar 14
Last Quarter
Mar 22
New
Mar 30
First Quarter
Apr 6
Full

Hourly Weather History & Observations

Time (EST) Temp. Windchill Dew Point Humidity Pressure Visibility Wind Dir Wind Speed Gust Speed Precip Events Conditions
12:54 AM 35.1 °F 27.9 °F 27.0 °F 72% 30.08 in 10.0 mi NW 9.2 mph - 0.00 in   Overcast
1:54 AM 34.0 °F 25.5 °F 25.0 °F 70% 30.10 in 10.0 mi NW 11.5 mph - N/A   Overcast
2:54 AM 32.0 °F 25.6 °F 24.1 °F 73% 30.11 in 10.0 mi Variable 6.9 mph - N/A   Clear
3:54 AM 32.0 °F 23.0 °F 21.9 °F 66% 30.13 in 10.0 mi NW 11.5 mph 18.4 mph N/A   Clear
4:54 AM 32.0 °F 28.7 °F 21.9 °F 66% 30.14 in 10.0 mi WSW 3.5 mph - N/A   Clear
5:54 AM 30.0 °F - 21.0 °F 69% 30.15 in 10.0 mi Calm Calm - N/A   Clear
6:54 AM 28.0 °F - 21.9 °F 78% 30.14 in 10.0 mi Calm Calm - N/A   Partly Cloudy
7:54 AM 30.0 °F 24.1 °F 24.1 °F 79% 30.14 in 10.0 mi SSE 5.8 mph - N/A   Mostly Cloudy
8:54 AM 34.0 °F 29.8 °F 25.0 °F 70% 30.13 in 10.0 mi ESE 4.6 mph - N/A   Overcast
9:54 AM 36.0 °F 30.3 °F 25.0 °F 64% 30.11 in 10.0 mi West 6.9 mph - 0.00 in Snow Light Snow
10:54 AM 39.0 °F 33.4 °F 25.0 °F 57% 30.09 in 10.0 mi SW 8.1 mph - 0.00 in   Mostly Cloudy
11:12 AM 37.4 °F 30.3 °F 24.8 °F 60% 30.07 in 1.5 mi WSW 10.4 mph 29.9 mph 0.00 in Snow Light Snow
11:17 AM 35.6 °F 30.7 °F 28.4 °F 75% 30.07 in 0.8 mi Variable 5.8 mph 29.9 mph 0.00 in Snow Light Snow
11:28 AM 35.6 °F 29.2 °F 30.2 °F 81% 30.07 in 2.0 mi NW 8.1 mph - 0.00 in Snow Light Snow
11:35 AM 37.4 °F 32.1 °F 30.2 °F 75% 30.06 in 6.0 mi WNW 6.9 mph - 0.00 in Snow Light Snow
11:54 AM 37.9 °F 28.9 °F 27.0 °F 65% 30.11 in 5.0 mi West 16.1 mph 25.3 mph 0.00 in Snow Light Snow
12:54 PM 37.0 °F 29.8 °F 19.9 °F 50% 30.14 in 10.0 mi West 10.4 mph 26.5 mph 0.00 in   Mostly Cloudy
1:54 PM 37.0 °F 28.5 °F 19.9 °F 50% 30.15 in 9.0 mi West 13.8 mph 28.8 mph 0.00 in   Overcast
2:19 PM 33.8 °F 25.3 °F 23.0 °F 65% 30.12 in 2.5 mi WNW 11.5 mph 24.2 mph 0.00 in Snow Light Snow
2:27 PM 37.4 °F 30.8 °F 21.2 °F 52% 30.12 in 9.0 mi WNW 9.2 mph 18.4 mph 0.00 in   Overcast
2:54 PM 39.9 °F 32.9 °F 19.0 °F 43% 30.16 in 10.0 mi West 11.5 mph 24.2 mph 0.00 in   Overcast
3:36 PM 35.6 °F 25.2 °F 19.4 °F 52% 30.17 in 1.0 mi West 18.4 mph 27.6 mph 0.00 in Snow Light Snow
3:40 PM 32.0 °F 22.1 °F 26.6 °F 80% 30.17 in 0.2 mi NW 13.8 mph 27.6 mph 0.00 in Snow Heavy Snow
3:44 PM 32.0 °F 20.8 °F 28.4 °F 87% 30.17 in 0.2 mi NNW 17.3 mph 25.3 mph 0.00 in Fog , Snow Snow
3:54 PM 30.9 °F 21.7 °F 28.0 °F 89% 30.22 in 0.5 mi NW 11.5 mph 28.8 mph 0.00 in Fog , Snow Light Snow
3:59 PM 30.2 °F 19.3 °F 26.6 °F 86% 30.17 in 3.0 mi NW 15.0 mph 21.9 mph 0.00 in Snow Light Snow
4:06 PM 33.8 °F 24.3 °F 24.8 °F 70% 30.17 in 9.0 mi NW 13.8 mph 21.9 mph 0.00 in   Overcast
4:21 PM 33.8 °F 27.7 °F 24.8 °F 70% 30.18 in 10.0 mi WNW 6.9 mph - 0.00 in   Overcast
4:54 PM 33.1 °F 22.2 °F 21.9 °F 64% 30.25 in 3.0 mi WNW 17.3 mph 29.9 mph 0.00 in Snow Light Snow
5:22 PM 32.0 °F 22.5 °F 23.0 °F 69% 30.21 in 2.0 mi WNW 12.7 mph 23.0 mph 0.00 in Snow Light Snow
5:27 PM 30.2 °F 19.8 °F 24.8 °F 80% 30.22 in 0.8 mi WNW 13.8 mph 23.0 mph 0.00 in Snow Light Snow
5:37 PM 30.2 °F 19.3 °F 21.2 °F 69% 30.22 in 1.8 mi WNW 15.0 mph 24.2 mph 0.00 in Snow Light Snow
5:44 PM 32.0 °F 22.5 °F 17.6 °F 55% 30.22 in 9.0 mi WNW 12.7 mph 24.2 mph 0.00 in   Scattered Clouds
5:54 PM 32.0 °F 22.5 °F 17.1 °F 54% 30.28 in 10.0 mi WNW 12.7 mph 23.0 mph 0.00 in   Partly Cloudy
6:54 PM 30.0 °F 19.5 °F 12.0 °F 47% 30.32 in 10.0 mi West 13.8 mph 24.2 mph N/A   Partly Cloudy
7:54 PM 28.9 °F 20.4 °F 10.9 °F 47% 30.35 in 10.0 mi WNW 9.2 mph - N/A   Partly Cloudy
8:11 PM 26.6 °F 15.7 °F 17.6 °F 69% 30.31 in 2.5 mi WNW 12.7 mph 24.2 mph 0.00 in Snow Light Snow
8:19 PM 26.6 °F 17.5 °F 19.4 °F 74% 30.31 in 1.8 mi WNW 9.2 mph 21.9 mph 0.00 in Snow Light Snow
8:22 PM 26.6 °F 16.8 °F 19.4 °F 74% 30.31 in 3.0 mi NW 10.4 mph 17.3 mph 0.00 in Snow Light Snow
8:36 PM 26.6 °F 16.2 °F 19.4 °F 74% 30.31 in 10.0 mi NW 11.5 mph 18.4 mph 0.00 in   Mostly Cloudy
8:54 PM 27.0 °F 16.7 °F 15.1 °F 61% 30.37 in 10.0 mi NW 11.5 mph - 0.00 in   Scattered Clouds
9:54 PM 26.1 °F 10.4 °F 16.0 °F 66% 30.38 in 8.0 mi NW 26.5 mph 34.5 mph 0.00 in Snow Light Snow
10:54 PM 26.1 °F 15.6 °F 10.0 °F 51% 30.39 in 10.0 mi WNW 11.5 mph 21.9 mph 0.00 in   Clear
11:54 PM 25.0 °F 12.6 °F 12.9 °F 60% 30.41 in 9.0 mi NW 15.0 mph 31.1 mph 0.00 in   Mostly Cloudy